Time,TemperatureF,DewpointF,PressureIn,WindDirection,WindDirectionDegrees,WindSpeedMPH,WindSpeedGustMPH,Humidity,HourlyPrecipIn,Conditions,Clouds,dailyrainin,SolarRadiationWatts/m^2,SoftwareType,DateUTC
2013-06-07 00:12:00,79.0,22.0,29.94,SSE,156,4.0,5.0,12,-99.99,,,-99.99,0.000000,,2013-06-07 07:12:00,
2013-06-07 00:20:00,79.0,24.0,29.96,North,359,5.0,9.0,13,-99.99,,,-99.99,0.000000,,2013-06-07 07:20:00,
2013-06-07 01:20:00,73.0,24.0,29.96,South,173,1.0,2.0,16,-99.99,,,-99.99,0.000000,,2013-06-07 08:20:00,
2013-06-07 03:20:00,64.0,23.0,29.96,SE,146,4.0,5.0,21,-99.99,,,-99.99,0.000000,,2013-06-07 10:20:00,
2013-06-07 04:12:00,64.0,23.0,29.96,SE,146,4.0,5.0,21,-99.99,,,-99.99,0.000000,,2013-06-07 11:12:00,
2013-06-07 04:20:00,60.0,23.0,29.97,SSE,166,3.0,5.0,24,-99.99,,,-99.99,0.000000,,2013-06-07 11:20:00,
2013-06-07 05:20:00,59.0,24.0,29.98,SSE,163,2.0,4.0,25,-99.99,,,-99.99,1.000000,,2013-06-07 12:20:00,
2013-06-07 06:12:00,59.0,24.0,29.98,SSE,163,2.0,4.0,25,-99.99,,,-99.99,1.000000,,2013-06-07 13:12:00,
2013-06-07 06:20:00,59.0,24.0,30.00,ENE,74,2.0,3.0,25,-99.99,,,-99.99,90.000000,,2013-06-07 13:20:00,
2013-06-07 07:20:00,69.0,24.0,30.01,NNW,330,1.0,2.0,18,-99.99,,,-99.99,276.000000,,2013-06-07 14:20:00,
2013-06-07 08:12:00,69.0,24.0,30.01,NNW,330,1.0,2.0,18,-99.99,,,-99.99,276.000000,,2013-06-07 15:12:00,
2013-06-07 08:20:00,78.0,25.0,30.01,WNW,298,1.0,3.0,14,-99.99,,,-99.99,477.000000,,2013-06-07 15:20:00,
2013-06-07 09:20:00,84.0,24.0,30.01,West,276,4.0,6.0,11,-99.99,,,-99.99,666.000000,,2013-06-07 16:20:00,
2013-06-07 10:20:00,89.0,23.0,30.00,NNW,342,6.0,10.0,9,-99.99,,,-99.99,826.000000,,2013-06-07 17:20:00,
2013-06-07 11:20:00,92.0,19.0,29.99,NE,40,4.0,9.0,7,-99.99,,,-99.99,947.000000,,2013-06-07 18:20:00,
2013-06-07 12:14:00,92.0,19.0,29.99,NE,40,4.0,9.0,7,-99.99,,,-99.99,947.000000,,2013-06-07 19:14:00,
2013-06-07 12:20:00,95.0,18.0,29.98,NE,43,2.0,5.0,6,-99.99,,,-99.99,1013.000000,,2013-06-07 19:20:00,
2013-06-07 13:20:00,96.0,14.0,29.96,NNW,346,9.0,17.0,5,-99.99,,,-99.99,1041.000000,,2013-06-07 20:20:00,
2013-06-07 15:20:00,98.0,11.0,29.92,NNW,347,10.0,18.0,4,-99.99,,,-99.99,885.000000,,2013-06-07 22:20:00,
2013-06-07 16:17:00,98.0,11.0,29.92,NNW,347,10.0,18.0,4,-99.99,,,-99.99,885.000000,,2013-06-07 23:17:00,
2013-06-07 16:20:00,98.0,11.0,29.90,NE,36,6.0,17.0,4,-99.99,,,-99.99,734.000000,,2013-06-07 23:20:00,
2013-06-07 19:13:00,98.0,11.0,29.86,NNE,13,10.0,16.0,4,-99.99,,,-99.99,352.000000,,2013-06-08 02:13:00,
2013-06-07 19:20:00,97.0,10.0,29.86,North,9,7.0,12.0,4,-99.99,,,-99.99,159.000000,,2013-06-08 02:20:00,
2013-06-07 20:15:00,97.0,10.0,29.86,North,9,7.0,12.0,4,-99.99,,,-99.99,159.000000,,2013-06-08 03:15:00,
2013-06-07 20:20:00,92.0,16.0,29.86,North,7,8.0,12.0,6,-99.99,,,-99.99,6.000000,,2013-06-08 03:20:00,
2013-06-07 21:20:00,89.0,10.0,29.88,North,7,11.0,17.0,5,-99.99,,,-99.99,0.000000,,2013-06-08 04:20:00,
2013-06-07 22:12:00,89.0,10.0,29.88,North,7,11.0,17.0,5,-99.99,,,-99.99,0.000000,,2013-06-08 05:12:00,
2013-06-07 22:20:00,84.0,14.0,29.90,NW,320,6.0,8.0,7,-99.99,,,-99.99,0.000000,,2013-06-08 05:20:00,
2013-06-07 23:20:00,76.0,13.0,29.91,SSE,156,3.0,6.0,9,-99.99,,,-99.99,0.000000,,2013-06-08 06:20:00,